Tacoma, WA

5:52 AM PDT on May 26, 2018 (GMT -0700)
McChord Air Force Base

Weather History for KTCM - January, 2012

Change the Weather History Date:

Wednesday, January 11, 2012

  Actual Average Record
Temperature  
Mean Temperature 34 °F -  
Max Temperature 43 °F 43 °F 59 °F (1987)
Min Temperature 24 °F 32 °F 14 °F (1993)
Degree Days  
Heating Degree Days 32    
Moisture  
Dew Point 26 °F    
Average Humidity 92    
Maximum Humidity 100    
Minimum Humidity 58    
Precipitation  
Precipitation 0.00 in - - ()
Sea Level Pressure  
Sea Level Pressure 30.48 in    
Wind  
Wind Speed 1 mph (SSE)    
Max Wind Speed 10 mph    
Max Gust Speed -    
Visibility 7 miles    
Events      
Averages and records for this station are not official NWS values.
T = Trace of Precipitation, MM = Missing Value Source: NWS Daily Summary

Daily Weather History Graph

Daily Weather History Graph

Search for Another Location

Airport or City:

Astronomy

Jan. 11, 2012 Rise Set
Actual Time 7:54 AM PST 4:41 PM PST
Civil Twilight 7:19 AM PST 5:16 PM PST
Nautical Twilight 6:41 AM PST 5:54 PM PST
Astronomical Twilight 6:04 AM PST 6:31 PM PST
Moon 8:01 PM PST (1/11) 8:56 AM PST (1/11)
Length of Visible Light 9h 57m
Length of Day
8h 47m
Waning Gibbous, 93% of the Moon is Illuminated
Jan 11
Waning Gibbous
Jan 16
Last Quarter
Jan 22
New
Jan 30
First Quarter
Feb 7
Full

Hourly Weather History & Observations

Time (PST) Temp. Windchill Dew Point Humidity Pressure Visibility Wind Dir Wind Speed Gust Speed Precip Events Conditions
12:19 AM 26.6 °F - 24.8 °F 93% 30.52 in 2.5 mi Calm Calm - N/A   Clear
12:20 AM 26.6 °F - 24.8 °F 93% 30.52 in 2.0 mi Calm Calm - N/A   Clear
12:23 AM 26.6 °F - 26.6 °F 100% 30.53 in 1.8 mi Calm Calm - N/A   Clear
12:25 AM 26.6 °F - 26.6 °F 100% 30.53 in 1.5 mi Calm Calm - N/A   Clear
12:31 AM 26.6 °F 22.6 °F 24.8 °F 93% 30.53 in 1.0 mi South 3.5 mph - N/A   Clear
12:32 AM 26.6 °F 22.6 °F 24.8 °F 93% 30.53 in 1.0 mi South 3.5 mph - N/A   Clear
12:34 AM 24.8 °F 19.1 °F 24.8 °F 100% 30.53 in 0.8 mi South 4.6 mph - N/A   Clear
12:38 AM 24.8 °F 19.1 °F 24.8 °F 100% 30.53 in 1.0 mi South 4.6 mph - N/A   Clear
12:39 AM 24.8 °F 19.1 °F 24.8 °F 100% 30.53 in 1.0 mi South 4.6 mph - N/A   Clear
12:41 AM 26.6 °F 21.2 °F 24.8 °F 93% 30.53 in 1.2 mi SSE 4.6 mph - N/A   Clear
12:43 AM 24.8 °F - 24.8 °F 100% 30.53 in 1.8 mi Calm Calm - N/A   Clear
12:44 AM 24.8 °F - 24.8 °F 100% 30.53 in 2.5 mi Calm Calm - N/A   Clear
12:45 AM 24.8 °F - 24.8 °F 100% 30.53 in 3.0 mi Calm Calm - N/A   Clear
12:55 AM 24.3 °F - 23.9 °F 99% 30.53 in 10.0 mi Calm Calm - N/A   Clear
1:55 AM 27.0 °F 23.0 °F 26.4 °F 98% 30.52 in 10.0 mi Variable 3.5 mph - N/A   Clear
2:55 AM 25.3 °F - 24.8 °F 98% 30.53 in 10.0 mi Calm Calm - N/A   Clear
3:55 AM 26.8 °F - 26.2 °F 98% 30.51 in 10.0 mi Calm Calm - N/A   Clear
4:38 AM 24.8 °F - 24.8 °F 100% 30.50 in 2.5 mi Calm Calm - N/A   Clear
4:41 AM 24.8 °F - 24.8 °F 100% 30.50 in 3.0 mi Calm Calm - N/A   Clear
4:55 AM 25.9 °F - 25.3 °F 98% 30.51 in 10.0 mi Calm Calm - N/A   Clear
5:55 AM 25.9 °F - 25.3 °F 98% 30.51 in 10.0 mi Calm Calm - N/A   Clear
6:55 AM 27.3 °F - 27.1 °F 99% 30.50 in 10.0 mi Calm Calm - N/A   Clear
7:55 AM 28.2 °F - 27.7 °F 98% 30.50 in 10.0 mi Calm Calm - N/A   Clear
8:55 AM 25.9 °F - 25.3 °F 98% 30.50 in 10.0 mi Calm Calm - N/A   Clear
9:55 AM 30.9 °F - 30.7 °F 99% 30.50 in 10.0 mi Calm Calm - N/A   Partly Cloudy
10:55 AM 33.6 °F - 31.8 °F 93% 30.48 in 10.0 mi Calm Calm - N/A   Scattered Clouds
11:55 AM 39.4 °F - 29.1 °F 67% 30.46 in 10.0 mi Calm Calm - N/A   Clear
12:55 PM 42.4 °F 37.0 °F 31.3 °F 65% 30.45 in 10.0 mi NNE 9.2 mph - N/A   Clear
1:55 PM 43.2 °F 38.4 °F 29.3 °F 58% 30.42 in 10.0 mi North 8.1 mph - N/A   Clear
2:55 PM 42.8 °F 37.0 °F 30.0 °F 61% 30.43 in 10.0 mi North 10.4 mph - N/A   Clear
3:55 PM 41.5 °F 38.6 °F 29.8 °F 63% 30.41 in 10.0 mi Variable 4.6 mph - N/A   Clear
4:55 PM 37.9 °F 35.5 °F 30.4 °F 74% 30.42 in 10.0 mi ENE 3.5 mph - N/A   Clear
5:55 PM 36.7 °F - 29.7 °F 76% 30.42 in 10.0 mi Calm Calm - N/A   Clear
6:55 PM 29.8 °F - 28.2 °F 94% 30.40 in 10.0 mi Calm Calm - N/A   Clear
7:55 PM 26.4 °F 22.4 °F 25.2 °F 95% 30.40 in 10.0 mi South 3.5 mph - N/A   Clear
8:55 PM 27.1 °F - 26.6 °F 98% 30.40 in 10.0 mi Calm Calm - N/A   Clear
9:55 PM 24.3 °F - 23.7 °F 98% 30.41 in 9.0 mi Calm Calm - N/A   Clear
10:55 PM 25.0 °F - 24.4 °F 98% 30.41 in 10.0 mi Calm Calm - N/A   Clear
11:55 PM 25.2 °F - 24.6 °F 98% 30.39 in 10.0 mi Calm Calm - N/A   Clear